EW5209 Weather Reports


Display with metric or nautical units.
time (UTC)temp
F
wind
direction
speed
MPH
gust
MPH
rain 1hr
in
rain 24hr
in
rain mn
in
humidity
%
barometer
mb
20260507201742 72 10 1.0 6.0 0.00 0.06 0.00 59 1016.1
20260507201241 72 330 2.0 6.0 0.00 0.06 0.00 57 1016.0
20260507200739 72 58 1.0 6.0 0.00 0.06 0.00 60 1016.0
20260507200239 72 20 0.0 5.0 0.00 0.06 0.00 62 1016.1
20260507195739 71 335 1.0 6.0 0.00 0.06 0.00 60 1016.2
20260507195245 71 70 1.0 5.0 0.00 0.06 0.00 55 1016.5
20260507195240 71 68 2.0 6.0 0.00 0.06 0.00 57 1016.1
20260507194736 71 66 2.0 6.0 0.00 0.06 0.00 57 1016.4
20260507194237 71 53 2.0 6.0 0.00 0.06 0.00 57 1016.4
20260507193237 72 44 0.0 4.0 0.00 0.06 0.00 57 1016.6
20260507192736 71 97 1.0 4.0 0.00 0.06 0.00 59 1016.8
20260507192236 71 348 1.0 6.0 0.00 0.06 0.00 58 1016.8
20260507191736 71 314 1.0 6.0 0.00 0.06 0.00 56 1017.0
20260507191242 71 55 3.0 6.0 0.00 0.06 0.00 55 1017.2
20260507191237 71 40 2.0 6.0 0.00 0.06 0.00 58 1017.1
20260507190855 72 79 2.0 6.0 0.00 0.06 0.00 55 1017.3
20260507185734 72 118 1.0 6.0 0.00 0.06 0.00 56 1017.2
20260507185234 71 75 1.0 6.0 0.00 0.06 0.00 58 1017.2
20260507184734 71 56 1.0 6.0 0.00 0.06 0.00 58 1017.1
20260507184234 72 59 1.0 5.0 0.00 0.06 0.00 58 1017.2
20260507183739 72 87 1.0 6.0 0.00 0.06 0.00 62 1017.0
20260507183735 72 63 1.0 6.0 0.00 0.06 0.00 59 1017.1
20260507182735 71 83 0.0 6.0 0.00 0.06 0.00 63 1017.0
20260507182235 71 8 1.0 6.0 0.00 0.06 0.00 61 1016.9
20260507181735 71 309 1.0 6.0 0.00 0.06 0.00 62 1017.0
20260507181235 71 11 2.0 8.0 0.00 0.06 0.00 61 1017.1
20260507180732 71 23 1.0 8.0 0.00 0.06 0.00 59 1017.1
20260507180233 72 66 1.0 7.0 0.00 0.06 0.00 61 1017.2
20260507175732 72 50 1.0 7.0 0.00 0.06 0.00 61 1017.3
20260507175233 71 63 1.0 8.0 0.00 0.06 0.00 61 1017.4
20260507174732 71 72 2.0 8.0 0.00 0.06 0.00 63 1017.4
20260507174233 70 305 2.0 7.0 0.00 0.06 0.00 64 1017.5
20260507173737 70 356 2.0 6.0 0.00 0.06 0.00 64 1017.8
20260507173732 70 26 2.0 6.0 0.00 0.06 0.00 62 1017.5
20260507173352 70 70 2.0 13.0 0.00 0.06 0.00 64 1017.9
20260507172231 69 15 2.0 13.0 0.00 0.06 0.00 64 1017.9
20260507171730 69 31 3.0 13.0 0.00 0.06 0.00 64 1017.9
20260507171231 69 29 3.0 13.0 0.00 0.06 0.00 65 1017.8
20260507170729 69 73 2.0 7.0 0.00 0.06 0.00 65 1017.9
20260507170229 68 340 2.0 7.0 0.00 0.06 0.00 65 1018.0
20260507165729 68 291 3.0 7.0 0.00 0.06 0.00 66 1018.1
20260507165231 68 344 2.0 9.0 0.00 0.06 0.00 66 1018.3
20260507164730 68 61 3.0 9.0 0.00 0.06 0.00 66 1018.3
20260507164231 68 4 3.0 9.0 0.00 0.06 0.00 67 1018.5
20260507163729 68 27 2.0 9.0 0.00 0.06 0.00 67 1018.7
20260507163229 68 339 2.0 9.0 0.00 0.06 0.00 68 1018.9
20260507162733 69 322 1.0 7.0 0.00 0.06 0.00 66 1019.1
20260507162728 68 300 2.0 7.0 0.00 0.06 0.00 66 1018.9
20260507162345 68 53 1.0 6.0 0.00 0.06 0.00 69 1018.9
20260507161231 67 47 2.0 9.0 0.00 0.06 0.00 68 1018.9
20260507161225 67 17 2.0 6.0 0.00 0.06 0.00 68 1018.8
20260507160225 67 4 1.0 9.0 0.00 0.06 0.00 68 1019.1
20260507155723 66 30 2.0 10.0 0.00 0.06 0.00 70 1019.1
20260507155222 65 60 2.0 10.0 0.00 0.06 0.00 68 1018.8
20260507154720 66 60 2.0 10.0 0.00 0.06 0.00 71 1018.9
20260507154219 65 23 2.0 10.0 0.00 0.06 0.00 71 1018.9
20260507153720 65 56 1.0 7.0 0.00 0.06 0.00 71 1018.8
20260507153226 64 39 1.0 6.0 0.00 0.06 0.00 73 1019.1
20260507153220 65 99 1.0 6.0 0.00 0.06 0.00 73 1018.9
20260507152220 64 327 2.0 6.0 0.00 0.06 0.00 73 1019.2
20260507151724 63 55 1.0 6.0 0.00 0.06 0.00 74 1019.3
20260507151719 63 11 1.0 6.0 0.00 0.06 0.00 74 1019.3
20260507150721 63 33 2.0 7.0 0.00 0.06 0.00 74 1019.4
20260507150225 62 335 1.0 7.0 0.00 0.06 0.00 75 1019.5
20260507150221 62 102 2.0 7.0 0.00 0.06 0.00 75 1019.3
20260507145719 62 353 2.0 7.0 0.00 0.06 0.00 75 1019.4
20260507144720 62 5 1.0 4.0 0.00 0.06 0.00 74 1019.6
20260507144221 63 347 1.0 5.0 0.00 0.06 0.00 75 1019.5
20260507143724 62 82 0.0 5.0 0.00 0.06 0.00 78 1019.5
20260507143719 62 356 0.0 5.0 0.00 0.06 0.00 77 1019.6
20260507142719 61 65 0.0 5.0 0.00 0.06 0.00 79 1019.5
20260507142221 61 359 0.0 1.0 0.00 0.06 0.00 81 1019.6
20260507141726 60 34 0.0 4.0 0.00 0.06 0.00 81 1019.6
20260507141721 60 8 1.0 4.0 0.00 0.06 0.00 82 1019.5
20260507141337 60 12 0.0 0.0 0.00 0.06 0.00 82 1019.6
20260507140832 60 58 0.0 0.0 0.00 0.06 0.00 83 1019.5
20260507135712 60 312 0.0 0.0 0.00 0.06 0.00 83 1019.5
20260507135212 59 41 0.0 0.0 0.00 0.06 0.00 83 1019.5
20260507134712 59 21 0.0 0.0 0.00 0.06 0.00 85 1019.6
20260507134213 58 30 0.0 4.0 0.00 0.06 0.00 85 1019.6
20260507133712 58 347 0.0 4.0 0.00 0.06 0.00 85 1019.7
20260507133209 57 335 1.0 4.0 0.00 0.06 0.00 85 1020.0
20260507132710 56 309 1.0 4.0 0.00 0.06 0.00 84 1020.0
20260507132211 56 323 0.0 4.0 0.00 0.06 0.00 81 1020.1
20260507131710 56 325 0.0 2.0 0.00 0.06 0.00 76 1020.1
20260507131209 56 325 0.0 2.0 0.00 0.06 0.00 74 1020.0
20260507130707 55 323 0.0 0.0 0.00 0.06 0.00 67 1019.9
20260507130307 55 323 0.0 0.0 0.00 0.06 0.00 62 1019.9
20260507130208 55 323 0.0 0.0 0.00 0.06 0.00 66 1019.9
20260507130131 54 323 0.0 2.0 0.00 0.06 0.00 55 1019.8
20260507130004 54 323 0.0 1.0 0.00 0.06 0.00 58 1019.9
20260507125957 54 323 0.0 1.0 0.00 0.06 0.00 56 1019.9
20260507125950 54 323 0.0 1.0 0.00 0.06 0.00 59 1019.7
20260507123209 53 323 0.0 2.0 0.00 0.06 0.00 53 1020.2
20260507122709 53 323 0.0 2.0 0.00 0.06 0.00 51 1020.2
20260507122212 0 330 0.0 0.0 0.00 0.06 0.00 1020.0
20260507122207 53 323 0.0 2.0 0.00 0.06 0.00 50 1020.0
20260507121202 0 0.0 0.0 0.00 0.06 0.00 1020.0
20260507120615 0 0.0 0.0 0.00 0.06 0.00 1020.0
20260507120017 0 0.0 0.0 0.00 0.06 0.00 1020.1
20260507115518 0 0.0 0.0 0.00 0.06 0.00 1020.0
20260507115016 0 0.0 0.0 0.00 0.06 0.00 1019.8
20260507114517 0 0.0 0.0 0.00 0.06 0.00 1019.7
20260507114012 0 0.0 0.0 0.00 0.06 0.00 1019.6
20260507113417 0 0.0 0.0 0.00 0.06 0.00 1019.4
20260507112918 0 0.0 0.0 0.00 0.06 0.00 1019.1
20260507112911 0 0.0 0.0 0.00 0.06 0.00 1018.9
20260507111816 0 0.0 0.0 0.00 0.06 0.00 1018.8
20260507111312 0 0.0 0.0 0.00 0.06 0.00 1018.8
20260507111218 0 0.0 0.0 0.00 0.06 0.00 1018.7
20260507110218 0 0.0 0.0 0.00 0.06 0.00 1018.6
20260507105714 0 0.0 0.0 0.00 0.06 0.00 1018.6
20260507105120 0 0.0 0.0 0.00 0.06 0.00 1018.6
20260507104621 0 0.0 0.0 0.00 0.06 0.00 1018.4
20260507104616 0 0.0 0.0 0.00 0.06 0.00 1018.2
20260507103614 0 0.0 0.0 0.00 0.06 0.00 1018.2
20260507103110 0 0.0 0.0 0.00 0.06 0.00 1018.1
20260507102519 0 0.0 0.0 0.00 0.06 0.00 1018.0
20260507102018 0 0.0 0.0 0.00 0.06 0.00 1017.6
20260507101518 0 0.0 0.0 0.00 0.06 0.00 1017.4
20260507101015 0 0.0 0.0 0.00 0.06 0.00 1017.5
20260507100516 0 0.0 0.0 0.00 0.06 0.00 1017.4
20260507100015 0 0.0 0.0 0.00 0.06 0.00 1017.1
20260507100010 0 0.0 0.0 0.00 0.06 0.00 1017.2
20260507094917 0 0.0 0.0 0.00 0.06 0.00 1017.1
20260507094410 0 0.0 0.0 0.00 0.06 0.00 1017.1
20260507093819 0 0.0 0.0 0.00 0.06 0.00 1017.1
20260507093814 0 0.0 0.0 0.00 0.06 0.00 1017.1
20260507092722 0 0.0 0.0 0.00 0.06 0.00 1017.3
20260507092716 0 0.0 0.0 0.00 0.06 0.00 1017.3
20260507091712 0 0.0 0.0 0.00 0.06 0.00 1017.3
20260507091212 55 356 0.0 0.0 0.00 0.06 0.00 62 1017.2
20260507090712 55 356 0.0 0.0 0.00 0.06 0.00 62 1017.2
20260507090119 55 356 0.0 0.0 0.00 0.06 0.00 62 1017.1
20260507085623 54 355 0.0 2.0 0.00 0.06 0.00 63 1016.9
20260507085618 55 356 0.0 2.0 0.00 0.06 0.00 62 1017.1
20260507084617 55 355 0.0 2.0 0.00 0.06 0.00 65 1016.8
20260507084118 55 328 0.0 2.0 0.00 0.06 0.00 67 1017.0
20260507083614 55 328 0.0 2.0 0.00 0.06 0.00 70 1017.0
20260507083117 55 328 0.0 2.0 0.00 0.06 0.00 72 1016.9
20260507082614 55 344 0.0 2.0 0.00 0.06 0.00 73 1016.9
20260507082115 55 326 0.0 2.0 0.00 0.06 0.00 76 1017.0
20260507081617 55 39 0.0 0.0 0.00 0.06 0.00 77 1016.9
20260507081115 55 39 0.0 1.0 0.00 0.06 0.00 79 1016.8
20260507080622 56 48 0.0 6.0 0.00 0.06 0.00 80 1016.5
20260507080616 55 39 0.0 1.0 0.00 0.06 0.00 80 1016.6
20260507075616 56 49 0.0 6.0 0.00 0.06 0.00 81 1016.3
20260507075113 56 58 1.0 6.0 0.00 0.06 0.00 82 1016.3
20260507074613 56 61 2.0 11.0 0.00 0.06 0.00 82 1016.2
20260507074119 56 86 3.0 11.0 0.00 0.06 0.00 82 1016.2
20260507074113 56 73 2.0 11.0 0.00 0.06 0.00 82 1016.1
20260507073113 56 55 3.0 11.0 0.00 0.06 0.00 81 1016.1
20260507072614 56 52 3.0 9.0 0.00 0.06 0.00 81 1016.1
20260507072114 56 64 2.0 13.0 0.00 0.06 0.00 80 1016.1
20260507071613 57 33 2.0 13.0 0.00 0.06 0.00 79 1016.1
20260507071114 57 51 3.0 13.0 0.00 0.06 0.00 78 1016.2
20260507070611 56 48 2.0 13.0 0.00 0.06 0.00 77 1016.2
20260507070111 57 65 1.0 9.0 0.00 0.06 0.00 75 1016.2
20260507065616 57 60 1.0 7.0 0.00 0.06 0.00 77 1016.1
20260507065610 57 52 1.0 7.0 0.00 0.06 0.00 76 1016.2
20260507065228 57 27 2.0 7.0 0.00 0.06 0.00 78 1016.3
20260507064611 57 64 1.0 7.0 0.00 0.06 0.00 78 1016.1
20260507063611 57 71 1.0 7.0 0.00 0.06 0.00 78 1016.3
20260507063116 57 38 1.0 6.0 0.00 0.06 0.00 79 1016.4
20260507063111 57 71 0.0 6.0 0.00 0.06 0.00 78 1016.4
20260507062110 57 44 2.0 6.0 0.00 0.06 0.00 80 1016.4
20260507061611 57 62 2.0 7.0 0.00 0.06 0.00 81 1016.3
20260507061117 58 53 2.0 8.0 0.00 0.06 0.00 82 1016.3
20260507061111 58 32 2.0 8.0 0.00 0.06 0.00 81 1016.3
20260507060610 58 80 3.0 8.0 0.00 0.06 0.00 81 1016.3
20260507060231 58 49 1.0 8.0 0.00 0.06 0.00 82 1016.5
20260507055729 58 65 1.0 8.0 0.00 0.06 0.00 83 1016.5
20260507054611 58 58 1.0 8.0 0.00 0.06 0.00 83 1016.6
20260507054111 58 54 1.0 8.0 0.00 0.06 0.00 83 1016.5
20260507053612 58 50 2.0 9.0 0.00 0.06 0.00 84 1016.5
20260507053111 58 41 1.0 9.0 0.00 0.06 0.00 84 1016.4
20260507052616 58 47 1.0 7.0 0.00 0.06 0.00 84 1016.3
20260507052611 58 83 1.0 7.0 0.00 0.06 0.00 84 1016.4
20260507051609 58 324 1.0 7.0 0.00 0.06 0.00 85 1016.3
20260507051107 58 309 1.0 11.0 0.00 0.06 0.00 85 1016.4
20260507050607 58 357 1.0 11.0 0.00 0.06 0.00 85 1016.6
20260507050107 58 79 1.0 11.0 0.00 0.06 0.00 85 1016.5
20260507045607 58 31 2.0 11.0 0.00 0.06 0.06 85 1016.6
20260507045109 58 34 1.0 7.0 0.00 0.06 0.06 85 1016.7
20260507044607 58 333 1.0 10.0 0.00 0.06 0.06 85 1016.8
20260507044108 58 83 1.0 10.0 0.00 0.06 0.06 85 1017.0
20260507043607 58 53 2.0 10.0 0.00 0.06 0.06 85 1017.0
20260507043105 58 39 2.0 10.0 0.00 0.06 0.06 85 1017.0
20260507042607 58 61 1.0 6.0 0.00 0.06 0.06 85 1017.0
20260507042111 58 105 1.0 7.0 0.00 0.06 0.06 85 1017.0
20260507042105 58 34 1.0 7.0 0.00 0.06 0.06 85 1016.9
20260507041106 58 17 0.0 5.0 0.00 0.06 0.06 85 1016.9
20260507040605 58 328 1.0 5.0 0.00 0.06 0.06 85 1016.9
20260507040107 58 70 1.0 5.0 0.00 0.06 0.06 85 1017.0
20260507035605 58 352 0.0 5.0 0.00 0.06 0.06 85 1016.8
20260507035106 58 44 1.0 5.0 0.00 0.06 0.06 85 1016.8
20260507034603 58 319 1.0 5.0 0.00 0.06 0.06 84 1016.8
20260507034103 58 316 1.0 5.0 0.00 0.06 0.06 84 1016.8
20260507033603 58 357 1.0 7.0 0.00 0.06 0.06 84 1016.8
20260507033104 58 344 1.0 7.0 0.00 0.06 0.06 83 1016.8
20260507032603 58 318 1.0 7.0 0.00 0.06 0.06 82 1016.7
20260507032108 58 309 1.0 7.0 0.00 0.06 0.06 81 1016.5
20260507032103 58 27 1.0 7.0 0.00 0.06 0.06 82 1016.6
20260507031104 58 114 1.0 7.0 0.00 0.06 0.06 80 1016.4
20260507030609 58 35 1.0 7.0 0.00 0.06 0.06 80 1016.2
20260507030604 58 31 1.0 7.0 0.00 0.06 0.06 80 1016.3
20260507025601 58 51 1.0 7.0 0.00 0.06 0.06 79 1016.1
20260507025102 58 349 1.0 6.0 0.00 0.06 0.06 79 1016.0
20260507024601 58 59 0.0 6.0 0.00 0.06 0.06 78 1015.8
20260507024102 58 98 1.0 6.0 0.00 0.06 0.06 77 1015.6
20260507023600 58 36 1.0 6.0 0.00 0.06 0.06 78 1015.6
20260507023101 58 34 1.0 7.0 0.00 0.06 0.06 77 1015.6
20260507022601 58 108 1.0 7.0 0.00 0.06 0.06 77 1015.6
20260507022100 58 84 1.0 7.0 0.00 0.06 0.06 76 1015.5
20260507021559 58 80 1.0 7.0 0.00 0.06 0.06 77 1015.5
20260507021058 58 70 1.0 8.0 0.00 0.06 0.06 77 1015.3
20260507020557 58 323 1.0 8.0 0.00 0.06 0.06 77 1015.2
20260507020056 58 66 1.0 8.0 0.00 0.06 0.06 77 1015.0
20260507015557 58 100 1.0 8.0 0.00 0.06 0.06 77 1015.1
20260507015057 58 154 1.0 6.0 0.00 0.06 0.06 77 1015.0
20260507014559 58 52 1.0 6.0 0.00 0.06 0.06 77 1014.8
20260507014058 58 47 1.0 6.0 0.00 0.06 0.06 78 1014.6
20260507013554 58 75 0.0 5.0 0.00 0.06 0.06 78 1014.7
20260507013053 58 58 0.0 5.0 0.00 0.06 0.06 78 1014.5
20260507012554 58 51 1.0 5.0 0.00 0.06 0.06 79 1014.4
20260507012053 58 69 1.0 5.0 0.00 0.06 0.06 79 1014.5
20260507011600 58 295 1.0 5.0 0.00 0.06 0.06 79 1014.2
20260507011553 58 46 0.0 5.0 0.00 0.06 0.06 78 1014.3
20260507011054 58 61 0.0 5.0 0.00 0.06 0.06 79 1014.2
20260507010712 58 82 0.0 5.0 0.00 0.06 0.06 79 1014.0
20260507005553 58 74 0.0 4.0 0.00 0.06 0.06 79 1013.9
20260507005058 58 337 0.0 6.0 0.00 0.06 0.06 80 1014.1
20260507005053 58 21 0.0 4.0 0.00 0.06 0.06 80 1014.0
20260507004102 58 20 1.0 6.0 0.00 0.06 0.06 81 1014.0
20260507003558 58 61 1.0 7.0 0.00 0.06 0.06 81 1014.0
20260507003552 58 20 1.0 7.0 0.00 0.06 0.06 81 1014.0
20260507002548 58 323 1.0 10.0 0.00 0.06 0.06 81 1013.9
20260507002047 58 354 1.0 10.0 0.00 0.06 0.06 81 1014.0
20260507001548 58 56 0.0 5.0 0.01 0.06 0.06 80 1013.9
20260507001048 59 15 1.0 6.0 0.02 0.06 0.06 78 1013.5
20260507000549 59 63 1.0 7.0 0.05 0.06 0.06 79 1013.5
20260507000047 59 288 2.0 7.0 0.06 0.06 0.06 79 1013.6
20260506235548 59 31 1.0 7.0 0.06 0.06 0.06 78 1013.6
20260506235046 59 280 1.0 5.0 0.06 0.06 0.06 77 1013.4
20260506234547 59 4 1.0 6.0 0.06 0.06 0.06 77 1013.3
20260506234052 59 312 1.0 6.0 0.06 0.06 0.06 77 1013.5
20260506234047 59 344 1.0 6.0 0.06 0.06 0.06 78 1013.2
20260506233047 59 17 1.0 6.0 0.06 0.06 0.06 77 1013.3
20260506232547 59 295 0.0 4.0 0.06 0.06 0.06 79 1013.3
20260506232051 59 49 1.0 6.0 0.05 0.05 0.06 82 1013.3
20260506232046 59 345 0.0 6.0 0.06 0.06 0.06 80 1013.6
20260506231045 59 1 1.0 10.0 0.04 0.04 0.04 83 1013.4
20260506230546 60 326 1.0 10.0 0.01 0.01 0.01 84 1013.6
20260506230044 60 3 2.0 10.0 0.00 0.00 0.00 84 1013.4
20260506225542 60 52 2.0 10.0 0.00 0.00 0.00 84 1013.4
20260506225042 60 316 1.0 6.0 0.00 0.00 0.00 84 1013.2
20260506224541 60 321 1.0 6.0 0.00 0.00 0.00 84 1013.3
20260506224042 60 40 1.0 6.0 0.00 0.00 0.00 84 1013.1
20260506223538 61 18 2.0 7.0 0.00 0.00 0.00 84 1013.2
20260506223038 61 359 2.0 7.0 0.00 0.00 0.00 83 1013.3
20260506222536 61 353 1.0 9.0 0.00 0.00 0.00 83 1012.7
20260506222037 61 56 2.0 9.0 0.00 0.00 0.00 83 1012.7
20260506221537 61 314 2.0 9.0 0.00 0.00 0.00 83 1012.7
20260506221037 61 359 3.0 9.0 0.00 0.00 0.00 82 1012.9
20260506220537 61 32 3.0 9.0 0.00 0.00 0.00 82 1013.0
20260506220034 62 301 2.0 8.0 0.00 0.00 0.00 81 1012.8
20260506215536 62 46 2.0 11.0 0.00 0.00 0.00 81 1012.9
20260506215035 62 1 2.0 11.0 0.00 0.00 0.00 82 1012.5
20260506214534 62 330 2.0 11.0 0.00 0.00 0.00 81 1012.6
20260506214035 62 61 1.0 11.0 0.00 0.00 0.00 81 1012.7
20260506213538 62 9 3.0 11.0 0.00 0.00 0.00 81 1012.8
20260506213533 62 27 3.0 12.0 0.00 0.00 0.00 81 1012.7
20260506212534 62 319 2.0 12.0 0.00 0.00 0.00 80 1012.7
20260506212039 61 44 3.0 12.0 0.00 0.00 0.00 82 1012.6
20260506212034 62 348 2.0 12.0 0.00 0.00 0.00 82 1012.5
20260506211652 61 308 2.0 11.0 0.00 0.00 0.00 82 1012.7
20260506210539 60 321 5.0 11.0 0.00 0.00 0.00 83 1012.8
20260506210534 60 70 3.0 11.0 0.00 0.00 0.00 83 1012.7
20260506205532 60 45 4.0 11.0 0.00 0.00 0.00 83 1013.0
20260506205038 59 323 5.0 12.0 0.00 0.00 0.00 84 1013.2
20260506205032 60 309 5.0 12.0 0.00 0.00 0.00 84 1013.0
20260506204033 59 316 4.0 11.0 0.00 0.00 0.00 84 1013.2
20260506203533 59 37 4.0 11.0 0.00 0.00 0.00 84 1013.3
20260506203031 59 330 5.0 12.0 0.00 0.00 0.00 84 1013.5
20260506202532 58 290 6.0 13.0 0.00 0.00 0.00 84 1013.3